Flag for Japan Weather past 2 weeks in Kumamoto, Japan

Now
74 °F

Overcast.


Feels Like: 73 °F
Forecast: 71 / 87 °F
Wind: 1 mph from Northwest

Location: Kumamoto

Current Time: Aug 31, 2014 at 3:55:42 AM

Latest Report: Aug 31, 2014 at 3:00 AM


Visibility: 13 mi

Pressure: 29.83 "Hg

Humidity: 82%

Dew point: 68 °F

Location of KumamotoLocation

Historic Weather in Kumamoto — Graph

°F

Kumamoto temperature yesterday

Maximum temperature yesterday: 85 °F (at 2:00 PM)
Minimum temperature yesterday: 71 °F (at 6:00 AM)
Average temperature yesterday: 77 °F

Past Weeks' High & Low Weather Summary

 TemperatureHumidityPressure
High91 °F (Aug 21, 2:00 PM)97% (Aug 20, 1:00 AM)29.99 "Hg (Aug 20, 1:00 AM)
Low71 °F (Aug 30, 6:00 AM)53% (Aug 17, 3:00 PM)29.72 "Hg (Aug 16, 2:00 AM)
Average80 °F82%29.88 "Hg
* Reported Aug 16 1:00 AM — Aug 31 1:00 AM, Kumamoto, Weather by CustomWeather, © 2014

Note: Actual official high and low records may vary slightly from our data, if they occured in-between our weather recording intervals... More about our weather records

Advertising

Kumamoto weather history for previous 24 hours

 ConditionsComfort  
Time TempWeatherWind HumidityBarometerVisibility
1:00 AM
Aug 31
74 °FMild.3 mph73%29.85 "HgN/A
12:00 AM75 °FMild.5 mph74%29.85 "HgN/A
11:00 PM
Aug 30
75 °FMild.5 mph74%29.85 "HgN/A
10:00 PM75 °FMild.6 mph74%29.86 "HgN/A
9:00 PM76 °FOvercast.6 mph76%29.86 "Hg9 mi
8:00 PM76 °FMild.5 mph80%29.85 "HgN/A
7:00 PM76 °FMild.6 mph87%29.83 "HgN/A
6:00 PM78 °FSprinkles. Overcast.8 mph83%29.82 "Hg9 mi
5:00 PM79 °FWarm.7 mph75%29.81 "HgN/A
4:00 PM84 °FWarm.7 mph62%29.81 "HgN/A
3:00 PM85 °FOvercast.6 mph57%29.81 "Hg16 mi
2:00 PM85 °FWarm.6 mph61%29.83 "HgN/A
1:00 PM83 °FWarm.5 mph66%29.85 "HgN/A
12:00 PM83 °FPartly sunny.2 mph63%29.86 "Hg12 mi
11:00 AM81 °FWarm.3 mph69%29.88 "HgN/A
10:00 AM79 °FWarm.7 mph70%29.90 "HgN/A
9:00 AM76 °FOvercast.3 mph82%29.90 "Hg9 mi
8:00 AM73 °FMild.3 mph91%29.90 "HgN/A
7:00 AM72 °FMild.2 mph95%29.90 "HgN/A
6:00 AM71 °FOvercast.1 mph95%29.89 "Hg6 mi
4:00 AM72 °FMild.2 mph91%29.90 "HgN/A
3:00 AM72 °FOvercast.3 mph92%29.90 "Hg6 mi
Weather by CustomWeather, © 2014

See weather overviewHow to use our weather pages